CW6617 Weather Reports


time (UTC)temp
C
wind
direction
speed
KPH
gust
KPH
rain 1hr
cm
rain 24hr
cm
rain mn
cm
humidity
%
barometer
mb
20260906100704 22 178 14.5 27.4 0.00 0.00 0.00 66 1021.7
20260906100204 22 171 12.9 27.4 0.00 0.00 0.00 65 1021.8
20260906094704 22 163 12.9 20.9 0.00 0.00 0.00 69 1021.8
20260906094204 21 179 9.7 20.9 0.00 0.00 0.00 70 1021.8
20260906093704 21 172 11.3 24.1 0.00 0.00 0.00 70 1021.8
20260906093205 21 173 9.7 20.9 0.00 0.00 0.00 71 1021.9
20260906091204 20 166 14.5 20.9 0.00 0.00 0.00 75 1022.1
20260906084204 18 166 16.1 25.7 0.00 0.00 0.00 80 1022.3
20260906083704 18 163 16.1 22.5 0.00 0.00 0.00 81 1022.3
20260906081704 16 161 9.7 20.9 0.00 0.00 0.00 85 1022.2
20260906080705 16 163 11.3 20.9 0.00 0.00 0.00 86 1022.2
20260906080204 16 161 11.3 20.9 0.00 0.00 0.00 86 1022.3
20260906074704 15 167 8.0 12.9 0.00 0.00 0.00 87 1022.5
20260906074204 15 160 6.4 11.3 0.00 0.00 0.00 87 1022.6
20260906073703 15 158 9.7 20.9 0.00 0.00 0.00 88 1022.6
20260906073205 15 158 9.7 14.5 0.00 0.00 0.00 87 1022.7
20260906071205 15 167 4.8 9.7 0.00 0.00 0.00 87 1022.6
20260906070204 14 162 6.4 11.3 0.00 0.00 0.00 87 1022.7
20260906064705 14 169 3.2 9.7 0.00 0.00 0.00 87 1022.9
20260906064204 13 166 3.2 9.7 0.00 0.00 0.00 88 1022.9
20260906063704 13 164 4.8 9.7 0.00 0.00 0.00 88 1022.9
20260906063203 13 164 3.2 8.0 0.00 0.00 0.00 88 1022.9
20260906060704 13 171 1.6 3.2 0.00 0.00 0.00 87 1023.2
20260906060204 13 171 0.0 8.0 0.00 0.00 0.00 87 1023.2
20260906054703 13 171 0.0 3.2 0.00 0.00 0.00 87 1023.2
20260906054205 13 171 0.0 0.0 0.00 0.00 0.00 87 1023.2
20260906053704 13 171 0.0 3.2 0.00 0.00 0.00 87 1023.3
20260906053204 13 171 0.0 0.0 0.00 0.00 0.00 87 1023.3
20260906051704 13 171 0.0 3.2 0.00 0.00 0.00 87 1023.4
20260906051204 13 171 1.6 8.0 0.00 0.00 0.00 87 1023.4
20260906050703 13 171 1.6 8.0 0.00 0.00 0.00 87 1023.3
20260906050205 13 171 3.2 9.7 0.00 0.00 0.00 87 1023.4
20260906044205 13 172 3.2 9.7 0.00 0.00 0.00 87 1023.4
20260906043704 13 173 3.2 9.7 0.00 0.00 0.00 87 1023.5
20260906043204 13 180 1.6 4.8 0.00 0.00 0.00 87 1023.5
20260906041703 13 181 0.0 0.0 0.00 0.00 0.00 87 1023.6
20260906041204 13 181 0.0 0.0 0.00 0.00 0.00 87 1023.6
20260906040703 13 181 0.0 0.0 0.00 0.00 0.00 87 1023.6
20260906040204 13 181 0.0 0.0 0.00 0.00 0.00 87 1023.5
20260906033704 13 181 0.0 0.0 0.00 0.00 0.00 87 1023.9
20260906033203 13 181 0.0 0.0 0.00 0.00 0.00 86 1023.9
20260906031704 13 181 0.0 0.0 0.00 0.00 0.00 87 1024.1
20260906031203 13 181 0.0 0.0 0.00 0.00 0.00 87 1024.0
20260906030704 13 181 0.0 0.0 0.00 0.00 0.00 87 1024.1
20260906024704 13 181 0.0 0.0 0.00 0.00 0.00 87 1023.9
20260906024204 13 181 0.0 0.0 0.00 0.00 0.00 87 1024.0
20260906023704 13 181 0.0 0.0 0.00 0.00 0.00 87 1024.0
20260906023204 13 181 0.0 0.0 0.00 0.00 0.00 87 1024.0
20260906021704 13 184 0.0 0.0 0.00 0.00 0.00 87 1024.4
20260906021203 13 184 0.0 0.0 0.00 0.00 0.00 87 1024.5
20260906020704 13 184 0.0 0.0 0.00 0.00 0.00 86 1024.6
20260906014703 13 184 0.0 0.0 0.00 0.00 0.00 85 1024.8
20260906014203 13 184 0.0 0.0 0.00 0.00 0.00 86 1024.8
20260906013704 13 184 0.0 0.0 0.00 0.00 0.00 86 1024.8
20260906013203 13 184 0.0 0.0 0.00 0.00 0.00 85 1024.9
20260906011705 13 184 0.0 1.6 0.00 0.00 0.00 85 1025.0
20260906011203 13 184 0.0 1.6 0.00 0.00 0.00 85 1025.1
20260906010704 13 184 0.0 0.0 0.00 0.00 0.00 85 1025.2
20260906010204 13 184 0.0 3.2 0.00 0.00 0.00 85 1025.2
20260906004204 13 184 0.0 0.0 0.00 0.00 0.00 85 1025.0
20260906003704 13 184 0.0 0.0 0.00 0.00 0.00 84 1025.1
20260906001705 13 184 0.0 0.0 0.00 0.00 0.00 84 1025.3
20260906001204 13 184 0.0 0.0 0.00 0.00 0.00 84 1025.4
20260906000704 13 184 0.0 0.0 0.00 0.00 0.00 84 1025.6
20260906000204 13 184 0.0 0.0 0.00 0.00 0.00 84 1025.5
20260905234204 13 184 0.0 0.0 0.00 0.00 0.00 83 1025.6
20260905231704 13 184 0.0 1.6 0.00 0.00 0.00 83 1025.5
20260905231203 13 169 0.0 0.0 0.00 0.00 0.00 83 1025.4
20260905230704 13 169 0.0 0.0 0.00 0.00 0.00 82 1025.4
20260905230204 13 169 0.0 0.0 0.00 0.00 0.00 82 1025.6
20260905224704 13 169 0.0 0.0 0.00 0.00 0.00 82 1025.4
20260905224204 13 169 0.0 0.0 0.00 0.00 0.00 82 1025.5
20260905223704 13 169 0.0 0.0 0.00 0.00 0.00 81 1025.4
20260905221204 14 169 0.0 0.0 0.00 0.00 0.00 80 1025.4
20260905220704 14 169 0.0 0.0 0.00 0.00 0.00 80 1025.3
20260905214204 14 169 0.0 0.0 0.00 0.00 0.00 78 1025.2
20260905213704 15 169 0.0 0.0 0.00 0.00 0.00 77 1025.2
20260905213204 15 169 0.0 0.0 0.00 0.00 0.00 77 1025.3
20260905211704 15 169 0.0 0.0 0.00 0.00 0.00 76 1025.4
20260905211204 15 169 0.0 0.0 0.00 0.00 0.00 76 1025.3
20260905210704 15 169 0.0 0.0 0.00 0.00 0.00 75 1025.3
20260905210204 15 169 0.0 8.0 0.00 0.00 0.00 75 1025.2
20260905204704 15 169 0.0 0.0 0.00 0.00 0.00 73 1025.2
20260905204204 15 169 0.0 0.0 0.00 0.00 0.00 73 1025.2
20260905203704 16 169 0.0 0.0 0.00 0.00 0.00 73 1025.2
20260905203204 16 169 0.0 0.0 0.00 0.00 0.00 72 1025.1
20260905201704 16 169 0.0 1.6 0.00 0.00 0.00 71 1025.2
20260905201204 16 169 1.6 8.0 0.00 0.00 0.00 70 1025.2
20260905200704 16 169 1.6 3.2 0.00 0.00 0.00 69 1025.1
20260905200204 16 169 0.0 9.7 0.00 0.00 0.00 68 1025.1
20260905194204 17 200 0.0 0.0 0.00 0.00 0.00 66 1025.0
20260905193704 17 200 0.0 0.0 0.00 0.00 0.00 65 1025.0
20260905191704 18 200 0.0 0.0 0.00 0.00 0.00 62 1024.8
20260905191204 18 200 1.6 1.6 0.00 0.00 0.00 62 1024.6
20260905190704 18 200 0.0 0.0 0.00 0.00 0.00 61 1024.7
20260905190205 18 200 0.0 1.6 0.00 0.00 0.00 59 1024.8
20260905184704 19 200 1.6 3.2 0.00 0.00 0.00 57 1024.5
20260905184204 19 200 0.0 3.2 0.00 0.00 0.00 57 1024.6
20260905183704 20 200 0.0 1.6 0.00 0.00 0.00 56 1024.5
20260905181704 20 200 0.0 3.2 0.00 0.00 0.00 54 1024.5
20260905181204 20 200 0.0 0.0 0.00 0.00 0.00 54 1024.5
20260905180204 20 195 0.0 3.2 0.00 0.00 0.00 53 1024.5
20260905174703 21 194 1.6 3.2 0.00 0.00 0.00 52 1024.4
20260905174205 21 180 1.6 8.0 0.00 0.00 0.00 52 1024.5
20260905173703 21 213 3.2 4.8 0.00 0.00 0.00 51 1024.5
20260905171703 21 174 0.0 3.2 0.00 0.00 0.00 53 1024.4
20260905171203 21 173 3.2 8.0 0.00 0.00 0.00 53 1024.4
20260905170704 21 296 3.2 9.7 0.00 0.00 0.00 51 1024.5
20260905164703 22 284 3.2 8.0 0.00 0.00 0.00 50 1024.3
20260905164204 22 298 3.2 12.9 0.00 0.00 0.00 50 1024.2
20260905163704 22 211 3.2 9.7 0.00 0.00 0.00 50 1024.2
20260905163205 22 168 3.2 11.3 0.00 0.00 0.00 49 1024.3
20260905161703 23 293 3.2 9.7 0.00 0.00 0.00 48 1024.4
20260905161203 23 302 4.8 14.5 0.00 0.00 0.00 47 1024.4
20260905160704 23 303 3.2 9.7 0.00 0.00 0.00 47 1024.3
20260905160204 24 251 1.6 16.1 0.00 0.00 0.00 46 1024.3
20260905154704 23 181 4.8 11.3 0.00 0.00 0.00 49 1024.3
20260905153705 23 296 8.0 16.1 0.00 0.00 0.00 47 1024.3
20260905153204 24 291 6.4 19.3 0.00 0.00 0.00 48 1024.3
20260905151703 23 313 6.4 16.1 0.00 0.00 0.00 49 1024.5
20260905151204 23 304 9.7 16.1 0.00 0.00 0.00 48 1024.4
20260905150704 23 307 9.7 19.3 0.00 0.00 0.00 48 1024.5
20260905150204 23 267 3.2 16.1 0.00 0.00 0.00 47 1024.5
20260905144703 23 259 1.6 11.3 0.00 0.00 0.00 48 1024.6
20260905144204 23 264 4.8 12.9 0.00 0.00 0.00 48 1024.7
20260905143204 23 204 4.8 14.5 0.00 0.00 0.00 48 1024.6
20260905141204 23 284 4.8 12.9 0.00 0.00 0.00 50 1024.6
20260905140704 23 175 3.2 9.7 0.00 0.00 0.00 48 1024.6
20260905140203 23 294 8.0 20.9 0.00 0.00 0.00 50 1024.7
20260905134705 22 173 4.8 16.1 0.00 0.00 0.00 51 1024.6
20260905133703 22 339 3.2 11.3 0.00 0.00 0.00 52 1024.5
20260905131204 22 286 4.8 12.9 0.00 0.00 0.00 50 1024.4
20260905130704 22 198 4.8 11.3 0.00 0.00 0.00 51 1024.4
20260905130204 22 313 3.2 22.5 0.00 0.00 0.00 49 1024.4
20260905124204 22 258 3.2 9.7 0.00 0.00 0.00 53 1024.4
20260905123204 22 217 3.2 16.1 0.00 0.00 0.00 52 1024.3
20260905121705 22 205 3.2 19.3 0.00 0.00 0.00 54 1024.4
20260905121204 22 305 8.0 16.1 0.00 0.00 0.00 53 1024.3
20260905114704 21 228 6.4 14.5 0.00 0.00 0.00 53 1024.2
20260905114203 21 312 9.7 20.9 0.00 0.00 0.00 56 1024.3
20260905113204 20 294 6.4 22.5 0.00 0.00 0.00 56 1024.3
20260905111704 21 310 6.4 16.1 0.00 0.00 0.00 57 1024.4
20260905110703 21 294 4.8 11.3 0.00 0.00 0.00 58 1024.5
20260905110204 20 310 8.0 20.9 0.00 0.00 0.00 58 1024.3
20260905104703 20 279 4.8 19.3 0.00 0.00 0.00 59 1024.3
20260905103704 19 263 4.8 12.9 0.00 0.00 0.00 61 1024.4
20260905103206 19 282 11.3 19.3 0.00 0.00 0.00 61 1024.3